Simultaneous Nadir Overpasses (SNOs) Predictions

Prediction of SNOs between GOES-17 and METOP-C Satellite Orbit:

Table of predicted SNOs for the next 14.0 days since TLE Epoch: 2/19/2022
Index Date Time (GOES-17) GOES-17 Lat,Lon METOP-C Lat,Lon Distance(km) Time Diff (sec)
1 02/19/2022 18:53:46 0.03,-137.19 0.68,-140.14 335.85 80
2 02/20/2022 18:30:27 0.03,-137.17 -0.44,-135.14 231.54 80
3 02/22/2022 06:52:07 -0.03,-137.14 -0.59,-139.74 296.06 80
4 02/23/2022 06:28:47 -0.02,-137.11 0.53,-134.75 270.69 80
5 02/24/2022 18:47:38 0.02,-137.08 0.54,-139.29 252.20 80
6 02/25/2022 18:29:38 0.02,-137.06 -0.58,-134.30 314.02 80
7 02/27/2022 06:48:38 -0.03,-137.00 -0.42,-138.90 215.04 80
8 02/28/2022 06:27:58 -0.02,-136.97 0.65,-133.89 350.91 80
9 03/01/2022 18:44:09 0.02,-136.93 0.38,-138.45 173.16 80
10 03/02/2022 18:26:10 0.02,-136.90 -0.75,-133.46 392.81 80
11 03/04/2022 06:42:29 -0.02,-136.85 -0.29,-138.04 136.33 80
